Skip Page Navigation
NASA JPL Caltech
NASA Logo - Jet Propulsion Laboratory + View the NASA Portal
+ Center for Near-Earth Object Studies
JPL Home Earth Solar System Stars & Galaxies Technology
JPL Solar System Dynamics
BODIES ORBITS EPHEMERIDES TOOLS PHYSICAL DATA DISCOVERY FAQ SITE MAP
JPL Small-Body Database Browser
Search: [ help ]  
1522 Kokkola (1938 WO)
Classification: Main-belt Asteroid          SPK-ID: 2001522
Ephemeris | Orbit Diagram | Orbital Elements | Mission Design | Physical Parameters | Discovery Circumstances | Close-Approach Data ]

[ hide orbit diagram ]

For accurate long-term ephemerides, please instead use our Horizons system.This orbit viewer was implemented using two-body methods, and hence should not be used for determining accurate long-term trajectories (over several years or decades) or planetary encounter circumstances.


[ revert to old Java-based viewer ]

Orbital Elements at Epoch 2459000.5 (2020-May-31.0) TDB
Reference: JPL 34 (heliocentric ecliptic J2000)
 Element Value Uncertainty (1-sigma)   Units 
e .0725177317721567 2.4415e-08  
a 2.367669538209638 5.8673e-09 au
q 2.195971513712646 5.7427e-08 au
i 5.351975137071737 3.1339e-06 deg
node 60.61177120200585 3.6151e-05 deg
peri 30.09891821910681 4.6562e-05 deg
M 107.3700204242534 2.8349e-05 deg
tp 2458603.618740892085
(2019-Apr-30.11874089)
0.00010481 TDB
period 1330.699693585748
3.64
4.9464e-06
1.354e-08
d
yr
n .270534367547596 1.0056e-09 deg/d
Q 2.539367562706631 6.2928e-09 au
  Orbit Determination Parameters
   # obs. used (total)      2872  
   data-arc span      29871 days (81.78 yr)  
   first obs. used      1938-10-22  
   last obs. used      2020-08-03  
   planetary ephem.      DE431  
   SB-pert. ephem.      SB431-N16  
   condition code      0  
   norm. resid. RMS      .41135  
   source      ORB  
   producer      Otto Matic  
   solution date      2020-Aug-24 22:36:20  

Additional Information
 Earth MOID = 1.21418 au 
 Jupiter MOID = 2.58203 au 
 T_jup = 3.537 
[ show covariance matrix ]

Ephemeris | Orbit Diagram | Orbital Elements | Mission Design | Physical Parameters | Discovery Circumstances | Close-Approach Data ]

Physical Parameter Table
Parameter Symbol Value Units Sigma Reference Notes
absolute magnitude H 12.4   n/a MPO492768  
diameter diameter 9.422 km 0.094 urn:nasa:pds:neowise_diameters_albedos::2.0[mainbelt] (http://adsabs.harvard.edu/abs/2014ApJ...791..121M)  
rotation period rot_per 5.83 h n/a LCDB (Rev. 2019-August); Warner et al., 2009 Published Reference List:
[Binzel, R.P. (1987) Icarus 72, 135-208.]
geometric albedo albedo 0.206   0.011 urn:nasa:pds:neowise_diameters_albedos::2.0[mainbelt] (http://adsabs.harvard.edu/abs/2014ApJ...791..121M)  
B-V BV 0.880   0.020 EAR-A-5-DDR-UBV-MEAN-VALUES-V1.2 #obs=1; phase=2.32 deg.
U-B UB 0.510   0.030 EAR-A-5-DDR-UBV-MEAN-VALUES-V1.2 #obs=1; phase=2.32 deg.

1522 Kokkola (1938 WO)          Discovered 1938-Nov-18 by Oterma, L. at Turku
Reference: DISCOVERY.DBLast Updated: 2003-08-29

[ show close-approach data ]
Alternate Designations
 1938 WO = 1949 WB 
Ephemeris | Orbit Diagram | Orbital Elements | Mission Design | Physical Parameters | Discovery Circumstances | Close-Approach Data ]
ABOUT SSD CREDITS/AWARDS PRIVACY/COPYRIGHT GLOSSARY LINKS
FirstGov 2020-Sep-26 06:41 UT
(server date/time)  
NASA Home Page
Site Manager:   Ryan S. Park
Webmaster  Alan B. Chamberlin